Location: The Rolnick Observatory
(41.1711°N, 73.3275°W)
Time: 07:06:15
(UTC-04:00)

Daily predictions for brighter satellites

Satellite Brightness Start Highest point End
(mag) Time Altitude Azimuth Time Altitude Azimuth Time Altitude Azimuth
Cosmos 921 Rocket 4.0 18:25:43 10° N 18:29:31 27° ENE 18:33:14 10° ESE
DELTA 2 R/B (1) 3.8 18:26:24 10° W 18:31:59 75° S 18:37:34 10° ESE
Cosmos 1400 Rocket 3.0 18:28:54 10° N 18:32:51 49° ENE 18:36:42 10° SSE
MTI 3.7 18:32:41 10° NNE 18:35:52 64° E 18:39:02 10° S
CZ-4 R/B 4.5 18:32:46 10° SSE 18:36:50 59° ENE 18:40:55 10° N
Cosmos 1500 Rocket 3.9 18:32:42 10° N 18:36:52 43° ENE 18:40:59 10° SSE
CZ-4 R/B 1.8 18:38:29 10° S 18:42:42 72° W 18:46:52 10° NNW
Cosmos 1626 2.0 18:40:59 10° N 18:44:43 72° E 18:48:26 10° SSE
Cosmos 2366 rocket 4.0 18:38:59 10° S 18:45:12 83° E 18:51:24 10° N
CZ-2C R/B 4.0 18:40:52 10° N 18:45:24 73° WNW 18:49:50 10° SSW
BREEZE-M DEB (TANK) 1.4 18:43:47 10° SW 18:45:57 45° SE 18:47:43 12° ENE
ALOS 2.9 18:42:54 10° SE 18:47:08 35° ENE 18:51:21 10° N
Cosmos 1420 Rocket 4.4 18:45:40 10° N 18:50:43 41° ENE 18:55:42 10° SE
Cosmos 2360 Rocket 2.2 18:46:42 10° NNW 18:52:22 71° ENE 18:58:00 10° SSE
APEX 3.9 18:51:23 10° SSE 18:54:03 23° ESE 18:55:47 14° ENE
COSMOS 2428 3.3 18:50:23 10° N 18:55:34 35° ENE 19:00:43 10° ESE
Thor Agena Rocket 4.3 18:53:08 10° NE 18:57:31 29° E 19:01:51 10° SSE
Cosmos 2333 Rocket 3.5 18:54:13 10° N 18:58:32 21° NE 19:01:35 14° E
Cosmos 158 Rocket 4.3 18:54:24 10° S 18:59:07 42° ESE 19:03:59 10° NNE
Cosmos 2322 Rocket 3.7 18:55:08 10° NW 19:00:20 40° WSW 19:05:32 10° S
Cosmos 1833 4.2 18:54:58 10° SSW 19:00:41 88° WNW 19:06:22 10° NNE
COSMO-SKYMED 1 2.5 18:56:33 10° NNE 19:00:55 79° E 19:05:15 10° S
MONITOR-E 4.0 18:57:55 10° SSE 19:00:59 81° ENE 19:04:04 10° N
BREEZE-M DEB (TANK) 3.9 18:57:10 10° NW 19:01:18 66° NNE 19:17:48 10° ESE
Cosmos 2219 3.9 18:58:27 10° SSE 19:03:31 33° ESE 19:08:36 10° NE
Sich 1 4.3 19:02:55 10° NNE 19:06:11 20° ENE 19:07:31 18° E
Abrixas 3.9 19:08:09 10° S 19:09:11 15° SSE 19:09:11 15° SSE
Abrixas rocket 4.0 19:10:25 10° WNW 19:13:09 23° N 19:14:57 15° NE
Cosmos 1805 Rocket 4.0 19:11:23 10° N 19:15:28 37° ENE 19:19:33 10° SE
FENGYUN 3A 3.6 19:11:56 10° SSE 19:17:16 69° ENE 19:22:41 10° N
Cosmos 1315 Rocket 2.8 19:13:27 10° N 19:17:33 84° E 19:21:40 10° S
Cosmos 44 3.1 19:15:47 10° SSW 19:20:01 52° ESE 19:23:08 17° NE
Cosmos 1821 Rocket 4.1 19:15:59 10° SSE 19:21:54 53° E 19:27:57 10° NNE
Cosmos 1000 Rocket 4.5 19:15:46 10° N 19:21:56 60° E 19:28:01 10° SSE
YAOGAN 1 4.3 19:20:04 10° SSW 19:24:03 36° W 19:28:03 10° NNW
Cosmos 1666 Rocket 4.3 19:20:30 10° NNE 19:24:20 29° ENE 19:25:01 28° E
Cosmos 2322 3.8 19:19:23 10° NNW 19:25:08 80° WSW 19:30:50 10° SSE
Cosmos 1934 Rocket 4.3 19:19:53 10° SSE 19:25:48 43° E 19:31:46 10° NNE
USA 267 3.9 19:25:18 22° E 19:28:36 33° SE 19:34:21 10° S
Cosmos 2239 Rocket 4.4 19:23:07 10° S 19:29:06 60° E 19:35:10 10° NNE
Cosmos 2151 4.3 19:27:37 10° NNW 19:31:40 41° W 19:35:39 10° SSW
Cosmos 1633 Rocket 3.9 19:27:54 10° NNE 19:31:28 29° ENE 19:31:28 29° ENE
Cosmos 1269 Rocket 4.0 19:27:02 10° S 19:32:12 62° ESE 19:37:26 10° NNE
SPOT 3 Rocket 4.2 19:28:54 10° S 19:33:59 57° WSW 19:39:08 10° NNW
SJ-6B 2.9 19:40:35 45° ENE 19:40:35 45° ENE 19:44:01 10° N
RESURS DK-1 3.9 19:36:42 10° NW 19:40:32 37° WSW 19:44:20 10° S
Cosmos 2219 Rocket 2.4 19:35:36 10° NNW 19:41:01 48° ENE 19:43:16 32° ESE
FREGAT/IRIS 2.7 19:42:27 58° NNE 19:42:27 58° NNE 19:44:59 10° N
Cosmos 44 Rocket 3.1 19:38:53 10° SSW 19:43:35 88° SE 19:46:44 21° NNE
SL-8 R/B 4.3 19:40:57 10° W 19:45:39 50° NNW 19:47:49 29° NE
Meteor 2-10 4.0 19:41:46 10° S 19:46:38 52° E 19:51:34 10° NNE
Cosmos 1726 2.0 19:44:56 10° S 19:48:38 90° WNW 19:52:20 10° N
Cosmos 2098 Rocket 3.3 19:44:55 10° S 19:49:16 86° W 19:54:55 10° N
Cosmos 2123 Rocket 4.0 19:45:14 10° N 19:51:23 58° E 19:57:33 10° SSE
Atlas Centaur 2 3.8 19:49:00 10° SW 19:52:34 20° S 19:54:54 16° SSE
BREEZE-M DEB (TANK) 4.1 19:53:33 10° WSW 19:54:22 11° SW 19:54:39 11° SSW
Cosmos 1605 Rocket 4.0 19:50:20 10° SSE 19:56:11 50° E 20:02:02 10° NNE
Delta 2 Rocket 4.1 19:53:01 10° WSW 19:56:09 32° SSW 19:56:09 32° SSW
CSL-04 DEB 4.3 19:56:23 66° ENE 19:56:23 66° ENE 20:00:23 10° N
Gbstr 26 Del rocket 3.7 19:51:21 10° NW 19:56:30 68° NNE 19:58:17 45° E
Aureole 2 Rocket 2.7 19:54:38 10° NNW 19:58:14 68° NNE 19:58:14 68° NNE
Cosmos 2221 3.8 19:55:26 10° SSW 19:59:31 42° WNW 20:03:40 10° N
Cosmos 2333 4.3 19:55:08 10° NNW 20:00:52 77° WSW 20:05:29 16° SSE
USA 234 4.3 20:02:15 25° NE 20:04:08 29° NNE 20:09:36 10° NW
CZ-4C R/B 2.1 19:59:52 10° SW 20:05:03 83° NW 20:08:30 25° NNE
Cosmos 1110 Rocket 4.0 20:02:28 10° NNW 20:07:44 59° ENE 20:07:45 59° ENE
H-2A R/B 3.4 20:07:32 26° SSW 20:09:30 56° W 20:13:23 10° NNW
In-Cosmos 22 Rocket 4.1 20:07:47 10° N 20:13:33 76° E 20:15:17 47° SSE
Cosmos 2237 Rocket 2.5 20:08:13 10° NNW 20:13:12 47° NE 20:13:12 47° NE
DELTA 2 R/B (1) 4.3 20:12:53 10° W 20:18:09 43° SSW 20:19:09 39° S
Cosmos 2227 Rocket 3.6 20:15:21 10° S 20:17:28 23° S 20:17:28 23° S
Resurs 01 Rocket 3.3 20:23:45 24° N 20:23:45 24° N 20:25:36 10° N
SL-16 R/B 3.8 20:19:17 10° N 20:21:48 21° NNE 20:21:48 21° NNE
Envisat 3.9 20:35:33 38° N 20:35:33 38° N 20:38:41 10° N
Cosmos 1980 3.9 20:31:42 10° NNW 20:36:25 62° N 20:36:25 62° N
NOSS 0 Rocket 3.8 20:31:15 10° NNW 20:37:27 82° WSW 20:37:56 75° S
Meteor 2-2 Rocket 4.3 20:32:27 10° SSW 20:38:09 73° W 20:43:48 10° N
COSMOS 2428 4.2 20:34:42 10° NW 20:39:46 34° WSW 20:44:03 14° SSW
Cosmos 2333 Rocket 2.5 20:37:35 10° NNW 20:43:16 64° WSW 20:43:38 63° SW
BREEZE-M DEB (TANK) 4.0 20:47:08 10° WNW 20:52:04 39° NW 20:52:04 39° NW
Centaur D AC-29 4.0 20:58:43 10° SW 20:59:12 11° SW 20:59:12 11° SW
USA 267 3.5 21:12:42 63° W 21:12:42 63° W 21:18:21 10° WSW
Cosmos 2219 Rocket 4.1 21:20:17 10° NW 21:24:37 23° WSW 21:25:02 23° WSW
